[[{"header":{"parameterUnit":"m.s-1","parameterCategory":1,"la1":30.2991,"la2":30.254,"lo1":-89.0895,"lo2":-89.0444,"dy":0.0017,"dx":0.0017,"nx":28,"ny":28,"refTime":"2026-02-15T09:00:00:Z","depth":0,"parameterNumber":2,"parameterNumberName":"U-component_of_WINDS"},"data":[0,0,0,0,0,0,0,0,0,0,0,0,0,0,0,0,0,0,0,0,0,0,0,0,0,0,0,0,0,0,0,0,0,0,0,0,0,0,0,0,0,0,0,0,0,0,0,0,0,0,0,0,0,0,0,0,0,0,1.8507,1.8508,0,1.8538,1.8538,1.8538,1.853,1.853,1.8529,1.8529,1.8558,1.856,1.8561,0,0,0,0,0,0,0,0,0,0,0,0,0,1.8443,1.8444,1.8507,1.8508,1.8508,1.8538,1.8538,1.8538,1.8531,1.853,1.8529,1.8528,1.8558,1.856,1.8561,0,0,0,0,0,0,0,0,0,0,0,0,0,1.8472,1.8444,1.8507,1.8508,1.8508,1.8538,1.8538,1.8539,1.8531,1.853,1.8529,1.8528,1.8557,1.8559,1.8561,1.8592,0,0,1.8568,1.8568,0,0,0,0,0,0,0,0,1.847,1.8474,1.8507,1.8508,1.8508,1.8529,1.8526,1.8556,1.8531,1.8522,1.8529,1.8528,1.8549,1.8552,1.856,1.8593,1.8594,1.8568,1.8569,1.857,1.857,0,0,0,0,0,0,0,1.8468,1.8473,1.8519,1.8508,1.8508,1.8507,1.851,1.8532,1.854,1.8523,1.8522,1.8526,1.8549,1.8558,1.856,1.8595,1.8568,1.8569,1.8571,1.8572,1.8656,1.8657,0,0,0,0,0,0,1.8466,1.8471,1.8518,1.852,1.8487,1.8508,1.8512,1.8524,1.854,1.8542,1.8527,1.8526,1.8555,1.8558,1.8561,1.8598,1.857,1.8572,1.8573,1.8655,1.8656,1.8657,0,0,0,0,0,0,1.8464,1.847,1.8517,1.8496,1.8501,1.851,1.8524,1.8525,1.8533,1.8543,1.8545,1.8534,1.8554,1.8558,1.8585,1.8599,1.8573,1.8574,1.8654,1.8655,1.8657,1.8673,0,0,0,0,0,0,1.8463,1.847,1.8481,1.8496,1.8503,1.854,1.8525,1.8526,1.8536,1.8535,1.855,1.8552,1.8554,1.8582,1.8587,1.8602,1.8576,1.8652,1.8655,1.8656,1.8671,1.8675,1.8678,0,0,0,0,0,1.846,1.8484,1.8482,1.8488,1.8517,1.8541,1.8545,1.8547,1.8538,1.8549,1.8556,1.8551,1.8597,1.8584,1.859,1.8606,1.8652,1.8654,1.8656,1.8669,1.8674,1.8678,0,0,0,0,0,0,1.847,1.8486,1.8484,1.8513,1.8526,1.854,1.8554,1.8552,1.8567,1.8565,1.8567,1.8571,1.8598,1.8604,1.859,1.8637,1.8623,1.8627,1.8631,1.8636,1.8639,1.8636,1.8578,0,0,0,0,0,1.8475,1.8493,1.8506,1.8531,1.8538,1.8545,1.8555,1.8556,1.8569,1.8575,1.8583,1.8596,1.8614,1.8625,1.8642,1.8672,1.8676,1.8686,1.869,1.8692,1.8695,1.8713,1.8718,1.8665,1.8665,1.8665,0,0,1.8487,1.8498,1.8509,1.8533,1.8543,1.8562,1.8549,1.8569,1.8583,1.8578,1.8603,1.861,1.8625,1.8653,1.8666,1.866,1.8711,1.8695,1.8697,1.8699,1.8716,1.8721,1.8725,1.8667,1.8666,1.8666,0,0,1.8517,1.8527,1.8549,1.856,1.8576,1.8581,1.8586,1.8601,1.8606,1.8632,1.8628,1.8645,1.8674,1.8685,1.8695,1.8731,1.8727,1.8737,1.8754,1.8771,1.8776,1.8779,1.8793,1.8797,1.874,1.874,1.874,0,1.8529,1.8557,1.8561,1.8582,1.8592,1.8589,1.8612,1.8622,1.8642,1.865,1.8642,1.8681,1.869,1.8722,1.8731,1.8739,1.8745,1.8734,1.8775,1.8778,1.8782,1.8795,1.88,1.8741,1.874,1.874,1.874,0,1.8572,1.8591,1.8607,1.8628,1.8641,1.8662,1.8669,1.8681,1.8682,1.8688,1.8715,1.8726,1.8746,1.8753,1.8753,1.8785,1.8781,1.8774,1.876,1.8788,1.88,1.8805,1.8742,1.8742,1.8741,1.8741,0,0,1.8608,1.8631,1.8637,1.8646,1.8664,1.868,1.8702,1.8721,1.8732,1.8747,1.8765,1.8791,1.8786,1.8796,1.8798,1.8813,1.8842,1.8805,1.8805,1.8811,1.8879,1.8883,1.8889,1.884,1.8841,1.8841,1.8877,0,1.864,1.8678,1.8682,1.8717,1.8735,1.8733,1.8752,1.8766,1.8772,1.8789,1.8796,1.8815,1.8806,1.8813,1.8827,1.8835,1.8855,1.8833,1.8857,1.8858,1.8853,1.8895,1.89,1.8933,1.8882,1.8883,1.8883,0,1.8682,1.8699,1.8735,1.8752,1.876,1.8777,1.8796,1.8812,1.8827,1.8831,1.8844,1.8844,1.8866,1.8853,1.8884,1.8869,1.8879,1.8885,1.8886,1.8888,1.8872,1.8898,1.8944,1.8949,1.8891,1.889,1.889,0,1.8705,1.8736,1.8762,1.8771,1.8791,1.8803,1.8812,1.8826,1.8838,1.8855,1.8863,1.8882,1.8892,1.8907,1.8912,1.8901,1.8944,1.893,1.8948,1.8947,1.8956,1.8955,1.9004,1.8963,1.8963,1.8963,1.8963,0,1.874,1.8762,1.8773,1.8789,1.8814,1.8819,1.8844,1.8853,1.8866,1.8884,1.8883,1.89,1.8906,1.8924,1.8928,1.8954,1.8959,1.8962,1.8963,1.8962,1.8962,1.8969,1.8966,1.8964,1.8964,1.8964,1.8963,0,1.8769,1.8777,1.8806,1.8823,1.8828,1.8846,1.886,1.8876,1.8883,1.8905,1.8911,1.8922,1.8943,1.895,1.8975,1.8978,1.9009,1.9008,1.9004,1.9004,1.9021,1.9019,1.9075,1.9083,1.9037,1.9038,1.9038,0,1.8791,1.8808,1.8827,1.884,1.8849,1.8869,1.8881,1.8887,1.89,1.892,1.8934,1.8955,1.8972,1.9006,1.9016,1.9036,1.9035,1.9053,1.9038,1.9037,1.9035,1.9034,1.9036,1.9056,1.9056,1.9057,1.9057,0,1.8828,1.8832,1.885,1.887,1.8886,1.8902,1.8917,1.8927,1.8936,1.895,1.8972,1.8986,1.9013,1.9034,1.9054,1.9063,1.9062,1.9062,1.9067,1.9066,1.9063,1.9065,1.9011,1.906,1.906,1.906,1.906,1.906,1.8854,1.887,1.8887,1.8907,1.892,1.8935,1.8951,1.896,1.8979,1.9001,1.9004,1.9028,1.9044,1.9071,1.9082,1.91,1.9095,1.9102,1.9104,1.9106,1.9107,1.9061,1.9104,1.9104,1.9104,1.9104,1.9104,0,1.8892,1.8903,1.8922,1.8944,1.8961,1.8959,1.8976,1.899,1.9011,1.9027,1.9044,1.907,1.9091,1.9103,1.9124,1.9137,1.9137,1.9142,1.9141,1.9144,1.9111,1.9104,1.9142,1.9142,1.9142,1.9142,1.9142,1.9142,1.8914,1.894,1.8946,1.898,1.899,1.9014,1.9024,1.9038,1.9051,1.9079,1.9097,1.9105,1.912,1.9142,1.9162,1.9165,1.9172,1.9178,1.9181,1.915,1.9146,1.9142,1.9136,1.918,1.918,1.9212,1.9213,1.9213]},{"header":{"parameterUnit":"m.s-1","parameterCategory":1,"la1":30.2991,"la2":30.254,"lo1":-89.0895,"lo2":-89.0444,"dy":0.0017,"dx":0.0017,"nx":28,"ny":28,"refTime":"2026-02-15T09:00:00:Z","depth":0,"parameterNumber":3,"parameterNumberName":"V-component_of_WINDS"},"data":[0,0,0,0,0,0,0,0,0,0,0,0,0,0,0,0,0,0,0,0,0,0,0,0,0,0,0,0,0,0,0,0,0,0,0,0,0,0,0,0,0,0,0,0,0,0,0,0,0,0,0,0,0,0,0,0,0,0,-5.7584,-5.7586,0,-5.773,-5.7732,-5.7734,-5.7713,-5.7711,-5.7708,-5.7706,-5.7849,-5.7855,-5.7861,0,0,0,0,0,0,0,0,0,0,0,0,0,-5.7284,-5.7289,-5.7584,-5.7586,-5.7588,-5.773,-5.7732,-5.7734,-5.7714,-5.7711,-5.7708,-5.7705,-5.7847,-5.7855,-5.7862,0,0,0,0,0,0,0,0,0,0,0,0,0,-5.742,-5.7291,-5.7584,-5.7595,-5.7597,-5.773,-5.7732,-5.7735,-5.7714,-5.771,-5.7707,-5.7703,-5.7845,-5.7854,-5.7863,-5.7992,0,0,-5.7891,-5.7895,0,0,0,0,0,0,0,0,-5.7412,-5.7431,-5.7591,-5.7594,-5.7597,-5.77,-5.7679,-5.7821,-5.7715,-5.767,-5.7706,-5.7702,-5.7802,-5.7815,-5.785,-5.7998,-5.8004,-5.7891,-5.7897,-5.7901,-5.7903,0,0,0,0,0,0,0,-5.7403,-5.7425,-5.7642,-5.7594,-5.7597,-5.7591,-5.7607,-5.7706,-5.7754,-5.7673,-5.7672,-5.769,-5.7803,-5.7841,-5.7853,-5.8007,-5.7891,-5.7899,-5.7905,-5.7908,-5.8271,-5.8275,0,0,0,0,0,0,-5.7391,-5.7417,-5.7637,-5.7646,-5.7494,-5.76,-5.7617,-5.7671,-5.7753,-5.7762,-5.7693,-5.7689,-5.7827,-5.7842,-5.7858,-5.8016,-5.7901,-5.7909,-5.7915,-5.8267,-5.8272,-5.8277,0,0,0,0,0,0,-5.7385,-5.7411,-5.7631,-5.7532,-5.7559,-5.7609,-5.7669,-5.7675,-5.7713,-5.7768,-5.7776,-5.7723,-5.7825,-5.7845,-5.796,-5.8021,-5.7913,-5.7922,-5.8262,-5.8269,-5.8274,-5.8333,0,0,0,0,0,0,-5.7376,-5.7409,-5.7459,-5.7533,-5.7565,-5.7732,-5.7673,-5.7681,-5.773,-5.7725,-5.7799,-5.7807,-5.7824,-5.7946,-5.7969,-5.8031,-5.7929,-5.8257,-5.8265,-5.8272,-5.8325,-5.834,-5.8353,0,0,0,0,0,-5.7366,-5.7468,-5.7462,-5.7488,-5.7629,-5.7735,-5.7753,-5.7772,-5.7735,-5.7785,-5.7821,-5.7805,-5.8011,-5.7958,-5.7983,-5.805,-5.8253,-5.8263,-5.8272,-5.8319,-5.8337,-5.8352,0,0,0,0,0,0,-5.7396,-5.7477,-5.7472,-5.7601,-5.7662,-5.7732,-5.7796,-5.779,-5.7861,-5.7854,-5.7872,-5.7889,-5.8005,-5.8039,-5.7979,-5.818,-5.8126,-5.8141,-5.8154,-5.8171,-5.8185,-5.8174,-5.7936,0,0,0,0,0,-5.7419,-5.7501,-5.7566,-5.7673,-5.7705,-5.7745,-5.7792,-5.7802,-5.7865,-5.789,-5.7934,-5.7994,-5.8073,-5.8124,-5.8199,-5.833,-5.8346,-5.8388,-5.8402,-5.8413,-5.8425,-5.85,-5.852,-5.8307,-5.8307,-5.8307,0,0,-5.7464,-5.7519,-5.7569,-5.7681,-5.7729,-5.7813,-5.7767,-5.7856,-5.7918,-5.7903,-5.8015,-5.805,-5.8118,-5.8243,-5.8299,-5.8274,-5.8488,-5.8425,-5.8433,-5.844,-5.8511,-5.8531,-5.8549,-5.8314,-5.8313,-5.8312,0,0,-5.7591,-5.764,-5.7737,-5.7787,-5.7862,-5.7889,-5.7913,-5.7985,-5.8008,-5.8122,-5.8113,-5.8186,-5.832,-5.8371,-5.8413,-5.8563,-5.8552,-5.8587,-5.8658,-5.873,-5.8747,-5.8762,-5.8816,-5.8836,-5.8599,-5.86,-5.86,0,-5.7638,-5.7765,-5.7786,-5.7878,-5.7929,-5.7922,-5.802,-5.8067,-5.8162,-5.8196,-5.8167,-5.8338,-5.8383,-5.8521,-5.8558,-5.8592,-5.862,-5.8578,-5.8743,-5.8758,-5.8772,-5.8825,-5.8845,-5.8603,-5.8603,-5.8603,-5.8602,0,-5.782,-5.7908,-5.7977,-5.8073,-5.813,-5.8224,-5.8259,-5.8315,-5.8321,-5.8351,-5.8467,-5.8522,-5.861,-5.8643,-5.8647,-5.8782,-5.8764,-5.8739,-5.8685,-5.8796,-5.8846,-5.8866,-5.8609,-5.8608,-5.8607,-5.8606,0,0,-5.7967,-5.8077,-5.8102,-5.8146,-5.823,-5.8299,-5.8393,-5.8482,-5.853,-5.8596,-5.8676,-5.8792,-5.877,-5.8819,-5.883,-5.8893,-5.9011,-5.886,-5.8862,-5.8887,-5.9164,-5.9183,-5.9206,-5.9004,-5.9008,-5.9011,-5.9159,0,-5.8103,-5.8272,-5.8296,-5.8445,-5.8528,-5.8525,-5.8607,-5.8668,-5.8699,-5.8773,-5.8806,-5.8889,-5.8853,-5.8883,-5.8946,-5.8983,-5.9066,-5.8973,-5.9078,-5.9081,-5.9061,-5.9231,-5.9251,-5.9388,-5.9178,-5.9181,-5.9184,0,-5.8283,-5.8359,-5.8517,-5.8594,-5.8629,-5.8703,-5.8788,-5.8859,-5.8927,-5.8945,-5.9003,-5.9006,-5.9104,-5.9047,-5.9182,-5.9118,-5.9162,-5.9187,-5.9193,-5.9203,-5.9139,-5.9247,-5.9432,-5.9453,-5.9214,-5.9212,-5.9209,0,-5.8377,-5.8517,-5.8632,-5.867,-5.8761,-5.8813,-5.8853,-5.8919,-5.8972,-5.9045,-5.908,-5.9162,-5.9207,-5.9271,-5.9297,-5.9253,-5.9431,-5.9376,-5.9449,-5.9448,-5.9486,-5.9483,-5.9681,-5.9514,-5.9513,-5.9513,-5.9513,0,-5.8526,-5.8623,-5.8676,-5.8746,-5.8855,-5.8881,-5.8989,-5.9026,-5.9086,-5.9163,-5.9164,-5.9235,-5.9265,-5.9342,-5.9362,-5.9472,-5.9492,-5.9509,-5.9514,-5.951,-5.9508,-5.9539,-5.953,-5.9519,-5.9517,-5.9516,-5.9515,0,-5.8648,-5.8687,-5.8812,-5.889,-5.8912,-5.8989,-5.9055,-5.9123,-5.9155,-5.9252,-5.9277,-5.9326,-5.9417,-5.9449,-5.9558,-5.9572,-5.97,-5.9695,-5.9677,-5.9679,-5.975,-5.9744,-5.9975,-6.0008,-5.9818,-5.982,-5.9822,0,-5.8741,-5.8817,-5.8904,-5.8958,-5.9001,-5.9086,-5.9141,-5.917,-5.9227,-5.9313,-5.9371,-5.9462,-5.9536,-5.9681,-5.9725,-5.9809,-5.9808,-5.9883,-5.982,-5.9815,-5.981,-5.9806,-5.9814,-5.9895,-5.9897,-5.9898,-5.99,0,-5.8902,-5.8919,-5.8999,-5.9088,-5.9155,-5.9225,-5.9293,-5.9336,-5.9375,-5.9439,-5.9534,-5.9592,-5.9706,-5.9796,-5.9883,-5.9923,-5.9918,-5.992,-5.9941,-5.9938,-5.9925,-5.9935,-5.9711,-5.9914,-5.9912,-5.9911,-5.9911,-5.991,-5.9014,-5.9082,-5.9156,-5.9246,-5.9301,-5.9366,-5.9435,-5.9477,-5.9557,-5.9654,-5.9666,-5.9768,-5.9836,-5.9953,-5.9998,-6.0077,-6.0056,-6.0087,-6.0095,-6.0102,-6.0108,-5.9913,-6.0093,-6.0092,-6.0092,-6.0092,-6.0091,0,-5.9176,-5.9224,-5.9308,-5.9405,-5.9477,-5.9469,-5.9545,-5.9605,-5.9696,-5.9761,-5.9836,-5.9946,-6.0034,-6.0088,-6.0176,-6.023,-6.023,-6.0252,-6.0249,-6.0259,-6.0121,-6.0094,-6.0251,-6.0251,-6.0251,-6.0251,-6.0251,-6.0251,-5.9269,-5.9385,-5.9411,-5.9555,-5.9602,-5.9704,-5.9749,-5.9808,-5.9862,-5.9985,-6.006,-6.0095,-6.0157,-6.0251,-6.0332,-6.0345,-6.0378,-6.0402,-6.0414,-6.0284,-6.0268,-6.0252,-6.0227,-6.0409,-6.0409,-6.0545,-6.0546,-6.0547]}]]